[[{"header":{"parameterUnit":"m.s-1","parameterCategory":1,"la1":30.2991,"la2":30.254,"lo1":-89.0895,"lo2":-89.0444,"dy":0.0017,"dx":0.0017,"nx":28,"ny":28,"refTime":"2024-02-20T03:00:00:Z","depth":0,"parameterNumber":2,"parameterNumberName":"U-component_of_WINDS"},"data":[0,0,0,0,0,0,0,0,0,0,0,0,0,0,0,0,0,0,0,0,0,0,0,0,0,0,0,0,0,0,0,0,0,0,0,0,0,0,0,0,0,0,0,0,0,0,0,0,0,0,0,0,0,0,0,0,0,0,0.338,0.338,0,0.3356,0.3356,0.3356,0.3344,0.3344,0.3344,0.3344,0.3319,0.3318,0.3317,0,0,0,0,0,0,0,0,0,0,0,0,0,0.3415,0.3414,0.338,0.338,0.338,0.3356,0.3356,0.3356,0.3344,0.3344,0.3344,0.3344,0.3319,0.3318,0.3317,0,0,0,0,0,0,0,0,0,0,0,0,0,0.3396,0.3414,0.338,0.3371,0.337,0.3357,0.3356,0.3356,0.3344,0.3344,0.3344,0.3344,0.3319,0.3318,0.3317,0.3311,0,0,0.3314,0.3314,0,0,0,0,0,0,0,0,0.3397,0.3395,0.3373,0.3372,0.337,0.3353,0.3359,0.3341,0.3344,0.3354,0.3344,0.3344,0.333,0.3328,0.3324,0.3309,0.3308,0.3314,0.3313,0.3313,0.3313,0,0,0,0,0,0,0,0.3399,0.3396,0.3371,0.3372,0.3371,0.3368,0.3365,0.3355,0.3342,0.3353,0.3352,0.335,0.3329,0.3325,0.3323,0.3308,0.3314,0.3313,0.3312,0.3312,0.3288,0.3288,0,0,0,0,0,0,0.3402,0.3397,0.3372,0.337,0.3384,0.3367,0.3364,0.3359,0.3342,0.334,0.335,0.3349,0.3326,0.3324,0.3322,0.3314,0.3313,0.3312,0.3311,0.3288,0.3288,0.3288,0,0,0,0,0,0,0.3402,0.3399,0.3372,0.3383,0.338,0.3367,0.3361,0.3358,0.3353,0.334,0.3337,0.3347,0.3326,0.3323,0.3314,0.3313,0.3311,0.331,0.3288,0.3288,0.3288,0.3297,0,0,0,0,0,0,0.3403,0.34,0.3397,0.3383,0.3379,0.3365,0.336,0.3358,0.3352,0.3351,0.3337,0.3334,0.3326,0.3315,0.3313,0.3311,0.331,0.3288,0.3288,0.3288,0.3297,0.3297,0.3298,0,0,0,0,0,0.3405,0.34,0.3397,0.3394,0.3376,0.3365,0.3362,0.3353,0.3352,0.3349,0.334,0.3335,0.3313,0.3314,0.3311,0.331,0.3288,0.3288,0.3288,0.3296,0.3297,0.3298,0,0,0,0,0,0,0.3414,0.3398,0.3395,0.3386,0.3377,0.3363,0.3359,0.3354,0.3345,0.3345,0.3333,0.333,0.3322,0.3315,0.3316,0.3303,0.33,0.3299,0.3308,0.3308,0.3309,0.3311,0.3309,0,0,0,0,0,0.3415,0.3408,0.3394,0.3388,0.3384,0.3372,0.3367,0.3361,0.3351,0.3347,0.3337,0.3328,0.3319,0.3313,0.3304,0.3296,0.3292,0.3293,0.3293,0.3294,0.3293,0.3289,0.3289,0.3288,0.3288,0.3288,0,0,0.3417,0.3408,0.3404,0.3389,0.3382,0.3374,0.3369,0.3361,0.3356,0.3346,0.3336,0.3329,0.3317,0.3308,0.3304,0.3302,0.3293,0.3294,0.3294,0.3294,0.3289,0.3289,0.3289,0.3288,0.3288,0.3288,0,0,0.3417,0.3409,0.3403,0.3396,0.3384,0.3377,0.3376,0.3362,0.3357,0.3348,0.334,0.3333,0.3318,0.331,0.3304,0.3302,0.3297,0.3299,0.3302,0.3298,0.3298,0.3298,0.3297,0.3297,0.3299,0.3299,0.3299,0,0.3421,0.3409,0.34,0.3393,0.3387,0.3379,0.3373,0.3366,0.3352,0.3348,0.3346,0.3327,0.3319,0.3308,0.3308,0.3303,0.3301,0.3301,0.3298,0.3298,0.3298,0.3298,0.3297,0.3299,0.3299,0.3299,0.3299,0,0.3415,0.3407,0.3404,0.3391,0.3385,0.3378,0.3368,0.3363,0.3357,0.335,0.3341,0.333,0.3319,0.3316,0.3311,0.3305,0.3304,0.3301,0.3298,0.3299,0.3298,0.3298,0.33,0.33,0.33,0.33,0,0,0.3419,0.3403,0.3401,0.3396,0.3383,0.3377,0.337,0.336,0.3356,0.3346,0.334,0.3328,0.3325,0.3318,0.3311,0.3308,0.3307,0.3304,0.3304,0.3305,0.33,0.3303,0.3303,0.3303,0.3303,0.3303,0.3301,0,0.3417,0.3405,0.3397,0.3388,0.3381,0.3373,0.3367,0.3358,0.3352,0.3344,0.3337,0.3328,0.3324,0.332,0.3316,0.3308,0.3306,0.3308,0.3297,0.3297,0.33,0.3302,0.3305,0.3304,0.3301,0.3301,0.3301,0,0.3414,0.3406,0.3396,0.3384,0.3381,0.3376,0.3366,0.3359,0.335,0.3345,0.3338,0.3331,0.3324,0.3321,0.331,0.3312,0.3307,0.3303,0.3302,0.3301,0.3299,0.3301,0.3303,0.3303,0.33,0.33,0.33,0,0.3418,0.3405,0.3397,0.3393,0.3379,0.3376,0.337,0.336,0.3355,0.3346,0.3343,0.3333,0.3328,0.332,0.3311,0.331,0.3301,0.3298,0.3297,0.3297,0.3295,0.3295,0.3297,0.3292,0.3292,0.3292,0.3292,0,0.3417,0.3412,0.3399,0.3395,0.3388,0.3379,0.3373,0.3366,0.3358,0.3352,0.3344,0.3338,0.3327,0.332,0.3313,0.3305,0.3302,0.3298,0.3296,0.3299,0.3299,0.3296,0.3295,0.3292,0.3292,0.3292,0.3292,0,0.3421,0.3413,0.3404,0.3392,0.3389,0.3385,0.3375,0.337,0.3363,0.3356,0.3353,0.3342,0.3333,0.3324,0.3311,0.3307,0.3299,0.3297,0.3303,0.3302,0.3301,0.3301,0.33,0.3299,0.3295,0.3295,0.3295,0,0.3421,0.3417,0.3405,0.34,0.3395,0.3388,0.3383,0.3374,0.3368,0.3357,0.3354,0.3345,0.3337,0.3323,0.3314,0.3304,0.3301,0.3301,0.33,0.3303,0.3301,0.3302,0.3301,0.3302,0.3302,0.3302,0.3302,0,0.3422,0.3418,0.3411,0.3403,0.3397,0.3389,0.3382,0.3379,0.3368,0.3362,0.3354,0.3348,0.3336,0.3327,0.3316,0.331,0.3304,0.3303,0.3302,0.3305,0.3309,0.3307,0.3304,0.3303,0.3303,0.3303,0.3303,0.3303,0.3424,0.342,0.3411,0.3403,0.3397,0.339,0.3386,0.3378,0.3371,0.3361,0.3356,0.3348,0.3338,0.3324,0.3317,0.331,0.3308,0.3307,0.3307,0.3307,0.3308,0.331,0.3308,0.3308,0.3308,0.3308,0.3308,0,0.3424,0.3419,0.3412,0.3402,0.3396,0.3392,0.3384,0.3379,0.3372,0.3364,0.3356,0.3346,0.3338,0.3328,0.3319,0.3315,0.3312,0.3313,0.3313,0.3311,0.331,0.3311,0.3315,0.3315,0.3315,0.3315,0.3315,0.3315,0.3424,0.3417,0.3413,0.3403,0.3397,0.3389,0.3384,0.3378,0.3372,0.3361,0.3354,0.3348,0.3339,0.333,0.3321,0.3319,0.3315,0.3317,0.3314,0.3312,0.3312,0.3311,0.3313,0.3316,0.3316,0.3316,0.3316,0.3316]},{"header":{"parameterUnit":"m.s-1","parameterCategory":1,"la1":30.2991,"la2":30.254,"lo1":-89.0895,"lo2":-89.0444,"dy":0.0017,"dx":0.0017,"nx":28,"ny":28,"refTime":"2024-02-20T03:00:00:Z","depth":0,"parameterNumber":3,"parameterNumberName":"V-component_of_WINDS"},"data":[0,0,0,0,0,0,0,0,0,0,0,0,0,0,0,0,0,0,0,0,0,0,0,0,0,0,0,0,0,0,0,0,0,0,0,0,0,0,0,0,0,0,0,0,0,0,0,0,0,0,0,0,0,0,0,0,0,0,2.6018,2.6018,0,2.5974,2.5973,2.5973,2.6019,2.602,2.6022,2.6024,2.5972,2.5969,2.5966,0,0,0,0,0,0,0,0,0,0,0,0,0,2.6138,2.6135,2.6018,2.6018,2.6017,2.5974,2.5973,2.5973,2.6018,2.6021,2.6023,2.6025,2.5973,2.5969,2.5966,0,0,0,0,0,0,0,0,0,0,0,0,0,2.6088,2.6134,2.6018,2.6035,2.6036,2.5974,2.5973,2.5973,2.6018,2.6021,2.6023,2.6026,2.5974,2.597,2.5965,2.5883,0,0,2.5951,2.5949,0,0,0,0,0,0,0,0,2.6091,2.6084,2.6033,2.6034,2.6035,2.6005,2.5996,2.5942,2.6017,2.6024,2.6024,2.6027,2.598,2.5975,2.5961,2.588,2.5878,2.5951,2.5948,2.5946,2.5945,0,0,0,0,0,0,0,2.6095,2.6086,2.6001,2.6032,2.6033,2.6043,2.6039,2.5986,2.5987,2.6024,2.6027,2.6022,2.5981,2.5965,2.596,2.5877,2.5951,2.5947,2.5944,2.5942,2.5729,2.5726,0,0,0,0,0,0,2.6097,2.6089,2.6002,2.5999,2.607,2.6039,2.6034,2.6011,2.5988,2.5987,2.602,2.6024,2.5972,2.5965,2.5958,2.5862,2.5946,2.5942,2.5939,2.5732,2.5729,2.5725,0,0,0,0,0,0,2.6099,2.6089,2.6004,2.6045,2.6035,2.6034,2.6008,2.6009,2.5993,2.5985,2.5985,2.6003,2.5974,2.5965,2.5902,2.5861,2.594,2.5935,2.5735,2.5731,2.5727,2.5668,0,0,0,0,0,0,2.6103,2.6089,2.6059,2.6044,2.6033,2.5949,2.6005,2.6006,2.5986,2.5992,2.597,2.5969,2.5975,2.5909,2.5898,2.5856,2.5932,2.5739,2.5733,2.5728,2.5673,2.5662,2.5652,0,0,0,0,0,2.6107,2.6042,2.6057,2.6046,2.5995,2.5947,2.594,2.5951,2.5983,2.5952,2.5947,2.5969,2.5867,2.5902,2.589,2.5846,2.5742,2.5735,2.5729,2.5678,2.5664,2.5652,0,0,0,0,0,0,2.6049,2.604,2.6057,2.5986,2.5967,2.5955,2.5916,2.5935,2.5905,2.5912,2.5924,2.5919,2.5853,2.5843,2.5882,2.5766,2.5809,2.58,2.5775,2.5762,2.5751,2.5755,2.5928,0,0,0,0,0,2.6029,2.5992,2.5986,2.5924,2.5914,2.5917,2.5896,2.5906,2.5886,2.5878,2.5868,2.5847,2.581,2.5785,2.5751,2.5672,2.5668,2.5636,2.5625,2.5617,2.5608,2.5568,2.5554,2.5704,2.5704,2.5704,0,0,2.5985,2.5976,2.5951,2.5912,2.5899,2.586,2.5909,2.5865,2.5836,2.5871,2.5812,2.5804,2.5781,2.5711,2.5679,2.57,2.5566,2.5608,2.5602,2.5598,2.556,2.5545,2.5533,2.57,2.57,2.5701,0,0,2.5886,2.5875,2.5823,2.581,2.579,2.5793,2.5781,2.5766,2.5763,2.5705,2.5731,2.5695,2.5631,2.5615,2.5597,2.5495,2.5515,2.5483,2.5427,2.5387,2.5375,2.5365,2.5329,2.5316,2.5475,2.5475,2.5475,0,2.5833,2.5777,2.5793,2.5749,2.5731,2.5763,2.571,2.5696,2.5665,2.5651,2.5676,2.5599,2.5585,2.5512,2.5488,2.5472,2.5458,2.5485,2.5376,2.5366,2.5356,2.5322,2.5309,2.5471,2.5471,2.5472,2.5472,0,2.5714,2.5675,2.5635,2.5609,2.5586,2.5537,2.5545,2.552,2.5533,2.5532,2.5473,2.5459,2.5423,2.5406,2.5417,2.5335,2.5349,2.5375,2.5419,2.5338,2.5306,2.5293,2.5466,2.5467,2.5468,2.5469,0,0,2.5575,2.5561,2.5546,2.5535,2.5517,2.5486,2.5439,2.5407,2.5386,2.5364,2.5325,2.5271,2.5296,2.5277,2.5286,2.5251,2.5172,2.5281,2.5281,2.5262,2.5082,2.5063,2.5048,2.5186,2.5183,2.5181,2.5085,0,2.5477,2.5398,2.5412,2.5335,2.5299,2.5331,2.529,2.5274,2.5273,2.5242,2.524,2.5202,2.5237,2.5226,2.5193,2.5189,2.5136,2.5196,2.5148,2.5146,2.5154,2.5031,2.5011,2.492,2.5072,2.507,2.5069,0,2.5351,2.5328,2.5248,2.5238,2.5224,2.5187,2.516,2.513,2.5113,2.5114,2.5094,2.5111,2.5063,2.5108,2.5043,2.5083,2.5064,2.5059,2.5056,2.5052,2.5103,2.5024,2.4891,2.4878,2.5049,2.5051,2.5052,0,2.5259,2.5208,2.5154,2.5144,2.513,2.5104,2.5097,2.5083,2.5063,2.5039,2.5026,2.4995,2.4978,2.4954,2.4961,2.4993,2.4894,2.4939,2.4893,2.4893,2.4871,2.4872,2.4733,2.4858,2.4858,2.4859,2.4859,0,2.5147,2.5097,2.5113,2.508,2.5025,2.5042,2.4986,2.4982,2.497,2.4936,2.496,2.4927,2.4939,2.4906,2.4912,2.4857,2.4849,2.4848,2.485,2.4846,2.4846,2.4834,2.4841,2.4855,2.4856,2.4856,2.4857,0,2.5035,2.5044,2.4988,2.4981,2.4978,2.4938,2.4932,2.49,2.4903,2.4859,2.485,2.4852,2.4816,2.4821,2.4779,2.4783,2.4715,2.4724,2.4722,2.4724,2.4678,2.4683,2.4527,2.4508,2.4644,2.4643,2.4642,0,2.4963,2.4926,2.4917,2.4898,2.489,2.4857,2.4839,2.4853,2.4833,2.4812,2.4783,2.4749,2.4723,2.4662,2.4659,2.4628,2.4637,2.4584,2.4632,2.463,2.4637,2.4639,2.4636,2.4575,2.4573,2.4572,2.4571,0,2.4836,2.4843,2.4816,2.4791,2.4769,2.475,2.4732,2.4714,2.4728,2.4703,2.4668,2.4648,2.4607,2.4573,2.4544,2.4535,2.4555,2.4556,2.4544,2.454,2.454,2.454,2.4697,2.4559,2.4561,2.4561,2.4562,2.4563,2.4742,2.4711,2.4701,2.4671,2.4661,2.4644,2.4616,2.4615,2.4587,2.4557,2.4567,2.4527,2.4512,2.4475,2.4464,2.4432,2.4451,2.4433,2.4428,2.4424,2.4419,2.4546,2.4426,2.4426,2.4427,2.4427,2.4427,0,2.4616,2.4612,2.4585,2.4562,2.4538,2.4562,2.4544,2.4523,2.4488,2.4473,2.4448,2.4408,2.4376,2.4372,2.4341,2.4316,2.4325,2.4308,2.431,2.4308,2.4403,2.4417,2.4302,2.4302,2.4302,2.4302,2.4302,2.4302,2.4548,2.4499,2.4504,2.445,2.4445,2.4408,2.4397,2.4382,2.4371,2.4326,2.4301,2.4299,2.4288,2.4258,2.4229,2.4229,2.4216,2.4196,2.4199,2.4288,2.43,2.4312,2.4326,2.4193,2.4193,2.4106,2.4106,2.4105]}]]